Simultaneous Nadir Overpasses (SNOs) Predictions

Prediction of SNOs between METOP-B and TERRA Satellite Orbit:

Table of predicted SNOs for the next 14.0 days since TLE Epoch: 4/16/2022
Index Date (METOP-B) Time (METOP-B) Lat,Lon (METOP-B) SZA (METOP-B ) Date (TERRA) Time (TERRA) Lat,Lon (TERRA) SZA (TERRA ) Distance(km) Time Diff (sec)
1 04/16/2022 05:35:55 -81.19, -42.39 106.69 04/16/2022 05:36:05 -81.18, -42.31 106.68 1.46 10
2 04/16/2022 06:26:34 81.21, 125.68 73.40 04/16/2022 06:25:30 81.21, 125.81 73.39 2.41 64
3 04/19/2022 00:19:37 81.18,-143.51 72.34 04/19/2022 00:20:51 81.17,-143.68 72.35 3.05 74
4 04/19/2022 01:10:17 -81.19, 24.08 107.64 04/19/2022 01:10:17 -81.19, 24.24 107.63 2.77 0
5 04/19/2022 02:00:55 81.22,-167.48 72.49 04/19/2022 01:59:42 81.22,-167.67 72.44 3.15 73
6 04/21/2022 19:53:59 81.18, -77.11 71.40 04/21/2022 19:55:03 81.17, -77.28 71.40 3.16 64
7 04/21/2022 20:44:39 -81.19, 90.49 108.59 04/21/2022 20:44:29 -81.19, 90.67 108.57 2.94 10
8 04/24/2022 15:28:20 81.18, -10.75 70.47 04/24/2022 15:29:13 81.18, -10.63 70.51 2.17 53
9 04/24/2022 16:18:59 -81.20, 157.25 109.46 04/24/2022 16:18:39 -81.21, 157.34 109.45 1.89 20
10 04/27/2022 11:02:41 81.19, 55.94 69.62 04/27/2022 11:03:24 81.19, 55.91 69.63 0.76 43



Historial Predications of SNOs between METOP-B and TERRA
